Location: Agendoh
(31.0664°N, 8.9343°W)
Time: 09:02:28
(UTC+00:00)

Meteor 1-20 Rocket - Pass Details

Date: 06 December 2021
Orbit: 819 x 892 km, 81.2° (Epoch: 24 January)

Event Time Altitude Azimuth Distance (km) Brightness Sun altitude
Rises 06:43:53 0° 191° (SSW) 3,355 7.5 -8.0°
Reaches altitude 10° 06:46:16 10° 193° (SSW) 2,433 6.7 -7.5°
Maximum altitude 06:51:46 73° 278° (W) 884 4.2 -6.4°
Drops below altitude 10° 06:57:24 10° 3° (N) 2,494 6.5 -5.3°
Sets 06:59:53 0° 6° (N) 3,445 7.2 -4.8°
